Weather History for Monte Cimone, Italy

Change the Weather History Date:

Thursday, August 29, 2013

  Actual Average Record
Temperature  
Mean Temperature 48 °F -  
Max Temperature 50 °F 50 °F 66 °F (2001)
Min Temperature 45 °F 41 °F 30 °F (1998)
Degree Days  
Heating Degree Days 18    
Moisture  
Dew Point 42 °F    
Average Humidity 80    
Maximum Humidity 100    
Minimum Humidity 57    
Precipitation  
Precipitation 0.16 in 0.10 in - ()
Sea Level Pressure  
Sea Level Pressure 30.28 in    
Wind  
Wind Speed 7 mph ()    
Max Wind Speed 15 mph    
Max Gust Speed -    
Visibility 4.1 miles    
Events Fog , Rain , Thunderstorm    
Averages and records for this station are not official NWS values.
T = Trace of Precipitation, MM = Missing Value Source: Averaged Metar Reports

Daily Weather History Graph

Daily Weather History Graph

Search for Another Location

Airport:

Trip Planner

Search our weather history database for the weather conditions in past years. The results will help you decide how hot, cold, wet, or windy it might be!

Date:

Astronomy

Aug. 29, 2013 Rise Set
Actual Time 6:36 AM CEST 7:58 PM CEST
Civil Twilight 6:06 AM CEST 8:28 PM CEST
Nautical Twilight 5:30 AM CEST 9:04 PM CEST
Astronomical Twilight 4:51 AM CEST 9:43 PM CEST
Moon 12:09 AM CEST (8/29) 3:20 PM CEST (8/29)
Length of Visible Light 14h 21m
Length of Day
13h 21m
Last Quarter, 40% of the Moon is Illuminated
Aug 29
Last Quarter
Sep 5
New
Sep 12
First Quarter
Sep 19
Full
Sep 27
Last Quarter

Hourly Weather History & Observations

Time (CEST) Temp. Windchill Dew Point Humidity Pressure Visibility Wind Dir Wind Speed Gust Speed Precip Events Conditions
12:55 AM 46.4 °F 43.5 °F 46.4 °F 100% 30.21 in 0.0 mi North 5.8 mph - N/A Fog Fog
1:55 AM 46.4 °F 40.7 °F 46.4 °F 100% 30.24 in 0.0 mi WSW 12.7 mph - N/A Fog Fog
2:00 AM 46 °F - 46 °F 100%  in 0 mi WSW 12.7 mph - - Fog Heavy Fog
2:55 AM 46.4 °F 40.1 °F 46.4 °F 100% 30.24 in 0.0 mi WSW 15.0 mph - N/A Fog Fog
3:55 AM 46.4 °F 40.4 °F 46.4 °F 100% 30.24 in 0.0 mi WSW 13.8 mph - N/A Fog Fog
4:55 AM 46.4 °F 41.1 °F 44.6 °F 93% 30.24 in 0.0 mi WSW 11.5 mph - N/A Fog Fog
5:55 AM 46.4 °F 40.7 °F 42.8 °F 87% 30.24 in 0.1 mi WSW 12.7 mph - N/A Fog Fog
6:55 AM 46.4 °F 41.1 °F 41.0 °F 81% 30.24 in 6.2 mi ESE 11.5 mph - N/A   Partly Cloudy
7:55 AM 46.4 °F 41.9 °F 39.2 °F 76% 30.27 in - SE 9.2 mph - N/A   Clear
8:00 AM 46 °F - 39 °F 68%  in 19 mi SE 9.2 mph - -   Partly Cloudy
8:55 AM 48.2 °F - 39.2 °F 71% 30.27 in - ESE 11.5 mph - N/A   Clear
9:55 AM 48.2 °F - 42.8 °F 82% 30.27 in 6.2 mi ESE 9.2 mph - N/A   Scattered Clouds
10:55 AM 50.0 °F - 42.8 °F 76% 30.30 in 6.2 mi ESE 4.6 mph - N/A   Scattered Clouds
11:55 AM 50.0 °F - 44.6 °F 82% 30.30 in 0.1 mi Calm Calm - N/A Fog , Rain Light Rain
12:55 PM 48.2 °F - 46.4 °F 93% 30.30 in 0.1 mi ENE 9.2 mph - N/A Fog Fog
1:55 PM 48.2 °F - 44.6 °F 87% 30.30 in 0.0 mi ENE 6.9 mph - N/A Fog , Rain , Thunderstorm Light Thunderstorms and Rain
2:00 PM 47 °F - 44 °F 87%  in 0 mi ENE 6.9 mph - - Rain , Thunderstorm Thunderstorms and Rain
2:55 PM 48.2 °F - 44.6 °F 87% 30.30 in 0.0 mi ENE 5.8 mph - N/A Fog , Rain , Thunderstorm Light Thunderstorms and Rain
3:55 PM 48.2 °F - 42.8 °F 82% 30.30 in 6.2 mi Calm Calm - N/A Rain Rain
4:55 PM 50.0 °F - 42.8 °F 76% 30.30 in 6.2 mi Calm Calm - N/A   Mostly Cloudy
5:55 PM 50.0 °F - 41.0 °F 71% 30.30 in 6.2 mi Calm Calm - N/A   Mostly Cloudy
6:55 PM 50.0 °F - 41.0 °F 71% 30.30 in 6.2 mi Calm Calm - N/A   Mostly Cloudy
7:55 PM 50.0 °F - 39.2 °F 66% 30.30 in 6.2 mi Calm Calm - N/A   Mostly Cloudy
8:00 PM 50 °F - 39 °F 57%  in 16 mi Calm Calm - -   Partly Cloudy
8:55 PM 50.0 °F - 35.6 °F 58% 30.33 in 6.2 mi Calm Calm - N/A   Scattered Clouds
9:55 PM 50.0 °F - 35.6 °F 58% 30.33 in 6.2 mi Calm Calm - N/A   Scattered Clouds
10:55 PM 50.0 °F - 35.6 °F 58% 30.33 in 6.2 mi Calm Calm - N/A   Partly Cloudy
11:55 PM 48.2 °F - 41.0 °F 76% 30.33 in - Calm Calm - N/A   Clear